Location: La Fredeussais
(48.1780°N, 1.3980°W)
Time: 16:08:48
(UTC+00:00)

Cosmos 1733 Rocket - Pass Details

Date: 09 May 2021
Orbit: 603 x 628 km, 82.5° (Epoch: 23 June)

Event Time Altitude Azimuth Distance (km) Brightness Sun altitude
Rises 22:25:21 0° 356° (N) 2,876 7.7 -20.8°
Reaches altitude 10° 22:27:42 10° 4° (N) 1,965 6.5 -20.9°
Maximum altitude 22:31:48 41° 75° (ENE) 888 3.7 -21.2°
Enters shadow 22:32:20 39° 94° (E) 915 3.7 -21.2°
